Time,TemperatureF,DewpointF,PressureIn,WindDirection,WindDirectionDegrees,WindSpeedMPH,WindSpeedGustMPH,Humidity,HourlyPrecipIn,Conditions,Clouds,dailyrainin,SoftwareType,DateUTC
2013-07-17 00:11:00,77.0,76.7,29.98,NW,315,0.0,-999.0,99,-99.99,,,0.00,Acu-Link.com,2013-07-17 04:11:00,
2013-07-17 00:26:00,77.0,76.7,29.97,NW,315,0.0,-999.0,99,-99.99,,,0.00,Acu-Link.com,2013-07-17 04:26:00,
2013-07-17 00:42:00,77.2,76.9,29.97,NW,315,0.0,-999.0,99,-99.99,,,0.00,Acu-Link.com,2013-07-17 04:42:00,
2013-07-17 00:57:00,76.8,76.5,29.96,NW,315,0.0,-999.0,99,-99.99,,,0.00,Acu-Link.com,2013-07-17 04:57:00,
2013-07-17 01:12:00,76.8,76.5,29.97,NW,315,0.0,-999.0,99,-99.99,,,0.00,Acu-Link.com,2013-07-17 05:12:00,
2013-07-17 01:27:00,76.6,76.3,29.96,NW,315,0.0,-999.0,99,-99.99,,,0.00,Acu-Link.com,2013-07-17 05:27:00,
2013-07-17 01:42:00,76.6,76.3,29.97,NW,315,0.0,-999.0,99,-99.99,,,0.00,Acu-Link.com,2013-07-17 05:42:00,
2013-07-17 01:58:00,77.0,76.7,29.96,NW,315,0.0,-999.0,99,-99.99,,,0.00,Acu-Link.com,2013-07-17 05:58:00,
2013-07-17 02:13:00,76.6,76.3,29.97,NW,315,0.0,-999.0,99,-99.99,,,0.00,Acu-Link.com,2013-07-17 06:13:00,
2013-07-17 02:28:00,76.3,76.0,29.95,NW,315,0.0,-999.0,99,-99.99,,,0.00,Acu-Link.com,2013-07-17 06:28:00,
2013-07-17 02:43:00,75.9,75.6,29.96,NW,315,0.0,-999.0,99,-99.99,,,0.00,Acu-Link.com,2013-07-17 06:43:00,
2013-07-17 02:58:00,75.9,75.3,29.95,NW,315,0.0,-999.0,98,-99.99,,,0.00,Acu-Link.com,2013-07-17 06:58:00,
2013-07-17 03:14:00,75.6,75.3,29.95,NW,315,0.0,-999.0,99,-99.99,,,0.00,Acu-Link.com,2013-07-17 07:14:00,
2013-07-17 03:29:00,75.4,75.1,29.94,NW,315,0.0,-999.0,99,-99.99,,,0.00,Acu-Link.com,2013-07-17 07:29:00,
2013-07-17 03:44:00,75.0,74.7,29.95,NW,315,0.0,-999.0,99,-99.99,,,0.00,Acu-Link.com,2013-07-17 07:44:00,
2013-07-17 03:59:00,74.7,74.4,29.94,NW,315,0.0,-999.0,99,-99.99,,,0.00,Acu-Link.com,2013-07-17 07:59:00,
2013-07-17 04:14:00,74.7,74.4,29.94,NW,315,0.0,-999.0,99,-99.99,,,0.00,Acu-Link.com,2013-07-17 08:14:00,
2013-07-17 04:30:00,74.5,74.2,29.94,NW,315,0.0,-999.0,99,-99.99,,,0.00,Acu-Link.com,2013-07-17 08:30:00,
2013-07-17 04:45:00,74.3,74.0,29.96,NW,315,0.0,-999.0,99,-99.99,,,0.00,Acu-Link.com,2013-07-17 08:45:00,
2013-07-17 05:00:00,73.9,73.6,29.95,NW,315,0.0,-999.0,99,-99.99,,,0.00,Acu-Link.com,2013-07-17 09:00:00,
2013-07-17 05:15:00,73.8,73.5,29.96,NNE,22,0.0,-999.0,99,-99.99,,,0.00,Acu-Link.com,2013-07-17 09:15:00,
2013-07-17 05:30:00,73.6,73.3,29.94,NNE,22,0.0,-999.0,99,-99.99,,,0.00,Acu-Link.com,2013-07-17 09:30:00,
2013-07-17 05:45:00,73.2,72.9,29.95,NNE,22,0.0,-999.0,99,-99.99,,,0.00,Acu-Link.com,2013-07-17 09:45:00,
2013-07-17 06:01:00,73.0,72.7,29.96,NNE,22,0.0,-999.0,99,-99.99,,,0.00,Acu-Link.com,2013-07-17 10:01:00,
2013-07-17 06:16:00,72.9,72.6,29.97,West,270,0.0,-999.0,99,-99.99,,,0.00,Acu-Link.com,2013-07-17 10:16:00,
2013-07-17 06:31:00,72.7,72.4,29.97,West,270,0.0,-999.0,99,-99.99,,,0.00,Acu-Link.com,2013-07-17 10:31:00,
2013-07-17 06:46:00,72.7,72.4,29.98,West,270,0.0,-999.0,99,-99.99,,,0.00,Acu-Link.com,2013-07-17 10:46:00,
2013-07-17 07:01:00,73.0,72.7,29.97,West,270,0.0,-999.0,99,-99.99,,,0.00,Acu-Link.com,2013-07-17 11:01:00,
2013-07-17 07:17:00,73.4,73.1,29.96,West,270,0.0,-999.0,99,-99.99,,,0.00,Acu-Link.com,2013-07-17 11:17:00,
2013-07-17 07:32:00,73.9,73.6,29.98,West,270,0.0,-999.0,99,-99.99,,,0.00,Acu-Link.com,2013-07-17 11:32:00,
2013-07-17 07:47:00,74.8,74.5,29.98,NNE,22,0.0,-999.0,99,-99.99,,,0.00,Acu-Link.com,2013-07-17 11:47:00,
2013-07-17 08:02:00,75.7,75.4,29.99,WNW,292,0.0,-999.0,99,-99.99,,,0.00,Acu-Link.com,2013-07-17 12:02:00,
2013-07-17 08:18:00,76.5,76.2,29.98,North,0,1.7,-999.0,99,-99.99,,,0.00,Acu-Link.com,2013-07-17 12:18:00,
2013-07-17 08:33:00,77.5,76.6,29.99,NW,315,1.7,-999.0,97,-99.99,,,0.00,Acu-Link.com,2013-07-17 12:33:00,
2013-07-17 08:48:00,78.6,76.1,30.00,North,0,1.7,-999.0,92,-99.99,,,0.00,Acu-Link.com,2013-07-17 12:48:00,
2013-07-17 09:03:00,79.7,76.2,30.00,South,180,0.0,-999.0,89,-99.99,,,0.00,Acu-Link.com,2013-07-17 13:03:00,
2013-07-17 09:18:00,81.0,75.7,29.99,SSE,157,1.7,-999.0,84,-99.99,,,0.00,Acu-Link.com,2013-07-17 13:18:00,
2013-07-17 09:34:00,82.0,77.0,30.00,SSE,157,0.0,-999.0,85,-99.99,,,0.00,Acu-Link.com,2013-07-17 13:34:00,
2013-07-17 09:49:00,83.3,76.5,30.00,NNE,22,2.2,-999.0,80,-99.99,,,0.00,Acu-Link.com,2013-07-17 13:49:00,
2013-07-17 10:04:00,84.2,76.2,29.99,NW,315,1.7,-999.0,77,-99.99,,,0.00,Acu-Link.com,2013-07-17 14:04:00,
2013-07-17 10:19:00,85.1,77.1,30.00,WSW,247,1.1,-999.0,77,-99.99,,,0.00,Acu-Link.com,2013-07-17 14:19:00,
2013-07-17 10:34:00,86.0,77.1,29.99,South,180,1.1,-999.0,75,-99.99,,,0.00,Acu-Link.com,2013-07-17 14:34:00,
2013-07-17 10:50:00,87.3,76.7,30.00,South,180,1.7,-999.0,71,-99.99,,,0.00,Acu-Link.com,2013-07-17 14:50:00,
2013-07-17 11:05:00,88.9,76.9,29.99,South,180,0.0,-999.0,68,-99.99,,,0.00,Acu-Link.com,2013-07-17 15:05:00,
2013-07-17 11:20:00,88.5,76.1,30.00,South,180,1.1,-999.0,67,-99.99,,,0.00,Acu-Link.com,2013-07-17 15:20:00,
2013-07-17 11:36:00,89.6,77.2,30.00,South,180,1.1,-999.0,67,-99.99,,,0.00,Acu-Link.com,2013-07-17 15:36:00,
2013-07-17 11:51:00,90.0,76.6,30.00,SSE,157,3.2,-999.0,65,-99.99,,,0.00,Acu-Link.com,2013-07-17 15:51:00,
2013-07-17 12:06:00,90.1,76.2,29.99,SW,225,0.0,-999.0,64,-99.99,,,0.00,Acu-Link.com,2013-07-17 16:06:00,
2013-07-17 12:21:00,89.8,74.5,29.99,ESE,112,1.7,-999.0,61,-99.99,,,0.00,Acu-Link.com,2013-07-17 16:21:00,
2013-07-17 12:36:00,89.4,75.1,29.99,West,270,0.0,-999.0,63,-99.99,,,0.00,Acu-Link.com,2013-07-17 16:36:00,
2013-07-17 12:52:00,89.6,75.3,29.99,SW,225,1.7,-999.0,63,-99.99,,,0.00,Acu-Link.com,2013-07-17 16:52:00,
2013-07-17 13:07:00,89.2,75.9,29.98,SSE,157,1.7,-999.0,65,-99.99,,,0.00,Acu-Link.com,2013-07-17 17:07:00,
2013-07-17 13:22:00,91.0,75.6,29.97,West,270,1.7,-999.0,61,-99.99,,,0.00,Acu-Link.com,2013-07-17 17:22:00,
2013-07-17 13:37:00,89.8,75.0,29.97,NNE,22,4.2,-999.0,62,-99.99,,,0.00,Acu-Link.com,2013-07-17 17:37:00,
2013-07-17 13:52:00,91.8,74.4,29.97,SE,135,1.7,-999.0,57,-99.99,,,0.00,Acu-Link.com,2013-07-17 17:52:00,
2013-07-17 14:08:00,91.9,74.4,29.96,NNW,337,4.7,-999.0,57,-99.99,,,0.00,Acu-Link.com,2013-07-17 18:08:00,
2013-07-17 14:23:00,91.8,73.8,29.95,South,180,0.0,-999.0,56,-99.99,,,0.00,Acu-Link.com,2013-07-17 18:23:00,
2013-07-17 14:38:00,92.3,73.8,29.95,South,180,0.0,-999.0,55,-99.99,,,0.00,Acu-Link.com,2013-07-17 18:38:00,
2013-07-17 14:53:00,92.5,73.9,29.94,NNW,337,3.2,-999.0,55,-99.99,,,0.00,Acu-Link.com,2013-07-17 18:53:00,
2013-07-17 15:08:00,92.7,74.1,29.94,South,180,2.2,-999.0,55,-99.99,,,0.00,Acu-Link.com,2013-07-17 19:08:00,
2013-07-17 15:24:00,93.4,74.2,29.93,South,180,2.7,-999.0,54,-99.99,,,0.00,Acu-Link.com,2013-07-17 19:24:00,
2013-07-17 15:39:00,91.0,74.1,29.92,WSW,247,1.7,-999.0,58,-99.99,,,0.00,Acu-Link.com,2013-07-17 19:39:00,
2013-07-17 15:54:00,92.7,74.7,29.92,ESE,112,1.7,-999.0,56,-99.99,,,0.00,Acu-Link.com,2013-07-17 19:54:00,
2013-07-17 16:09:00,91.6,74.2,29.92,NNW,337,1.7,-999.0,57,-99.99,,,0.00,Acu-Link.com,2013-07-17 20:09:00,
2013-07-17 16:25:00,92.7,73.6,29.92,South,180,2.2,-999.0,54,-99.99,,,0.00,Acu-Link.com,2013-07-17 20:25:00,
2013-07-17 16:40:00,91.6,72.6,29.91,SE,135,1.7,-999.0,54,-99.99,,,0.00,Acu-Link.com,2013-07-17 20:40:00,
2013-07-17 16:55:00,92.1,74.1,29.90,South,180,0.0,-999.0,56,-99.99,,,0.00,Acu-Link.com,2013-07-17 20:55:00,
2013-07-17 17:10:00,92.1,75.2,29.90,SE,135,1.1,-999.0,58,-99.99,,,0.00,Acu-Link.com,2013-07-17 21:10:00,
2013-07-17 17:25:00,93.0,74.4,29.89,SW,225,2.7,-999.0,55,-99.99,,,0.00,Acu-Link.com,2013-07-17 21:25:00,
2013-07-17 17:41:00,91.8,75.4,29.88,South,180,0.0,-999.0,59,-99.99,,,0.00,Acu-Link.com,2013-07-17 21:41:00,
2013-07-17 17:56:00,92.3,72.7,29.88,South,180,1.7,-999.0,53,-99.99,,,0.00,Acu-Link.com,2013-07-17 21:56:00,
2013-07-17 18:11:00,99.7,75.8,29.88,SSW,202,0.0,-999.0,47,-99.99,,,0.00,Acu-Link.com,2013-07-17 22:11:00,
2013-07-17 18:26:00,101.8,77.1,29.88,NNW,337,0.0,-999.0,46,-99.99,,,0.00,Acu-Link.com,2013-07-17 22:26:00,
2013-07-17 18:41:00,99.7,73.8,29.88,South,180,0.0,-999.0,44,-99.99,,,0.00,Acu-Link.com,2013-07-17 22:41:00,
2013-07-17 18:57:00,99.7,75.2,29.88,South,180,0.0,-999.0,46,-99.99,,,0.00,Acu-Link.com,2013-07-17 22:57:00,
2013-07-17 19:12:00,99.3,76.7,29.89,West,270,0.0,-999.0,49,-99.99,,,0.00,Acu-Link.com,2013-07-17 23:12:00,
2013-07-17 19:27:00,97.9,78.4,29.90,SW,225,0.0,-999.0,54,-99.99,,,0.00,Acu-Link.com,2013-07-17 23:27:00,
2013-07-17 19:42:00,94.3,78.7,29.90,SSW,202,0.0,-999.0,61,-99.99,,,0.00,Acu-Link.com,2013-07-17 23:42:00,
2013-07-17 19:57:00,90.5,78.0,29.90,SSW,202,0.0,-999.0,67,-99.99,,,0.00,Acu-Link.com,2013-07-17 23:57:00,
2013-07-17 20:13:00,88.0,77.8,29.91,SSW,202,0.0,-999.0,72,-99.99,,,0.00,Acu-Link.com,2013-07-18 00:13:00,
2013-07-17 20:28:00,86.0,77.5,29.91,SSW,202,0.0,-999.0,76,-99.99,,,0.00,Acu-Link.com,2013-07-18 00:28:00,
2013-07-17 20:43:00,83.5,77.0,29.92,SSW,202,0.0,-999.0,81,-99.99,,,0.00,Acu-Link.com,2013-07-18 00:43:00,
2013-07-17 20:58:00,82.0,77.0,29.92,SSW,202,0.0,-999.0,85,-99.99,,,0.00,Acu-Link.com,2013-07-18 00:58:00,
2013-07-17 21:13:00,80.8,76.9,29.92,SSW,202,0.0,-999.0,88,-99.99,,,0.00,Acu-Link.com,2013-07-18 01:13:00,
2013-07-17 21:29:00,80.1,76.9,29.92,SSW,202,0.0,-999.0,90,-99.99,,,0.00,Acu-Link.com,2013-07-18 01:29:00,
2013-07-17 21:44:00,79.3,76.8,29.92,SSW,202,0.0,-999.0,92,-99.99,,,0.00,Acu-Link.com,2013-07-18 01:44:00,
2013-07-17 21:59:00,78.8,76.3,29.93,SSW,202,0.0,-999.0,92,-99.99,,,0.00,Acu-Link.com,2013-07-18 01:59:00,
2013-07-17 22:14:00,78.6,76.7,29.93,SE,135,1.7,-999.0,94,-99.99,,,0.00,Acu-Link.com,2013-07-18 02:14:00,
2013-07-17 22:30:00,78.8,75.9,29.93,North,0,0.0,-999.0,91,-99.99,,,0.00,Acu-Link.com,2013-07-18 02:30:00,
2013-07-17 22:45:00,79.3,75.1,29.93,ESE,112,1.7,-999.0,87,-99.99,,,0.00,Acu-Link.com,2013-07-18 02:45:00,
2013-07-17 23:00:00,79.5,76.0,29.93,South,180,0.0,-999.0,89,-99.99,,,0.00,Acu-Link.com,2013-07-18 03:00:00,
2013-07-17 23:15:00,79.2,76.3,29.93,South,180,0.0,-999.0,91,-99.99,,,0.00,Acu-Link.com,2013-07-18 03:15:00,
2013-07-17 23:30:00,79.0,75.8,29.92,South,180,0.0,-999.0,90,-99.99,,,0.00,Acu-Link.com,2013-07-18 03:30:00,
2013-07-17 23:46:00,78.6,75.4,29.93,South,180,0.0,-999.0,90,-99.99,,,0.00,Acu-Link.com,2013-07-18 03:46:00,